BFT2MN DTTA-EDDM

Flight info

Callsign BFT2MN
Flight time 1h 44m
Altitude 34000
Route TOBIB3C TOBIB A725 TANIT UA725 OSMAR DCT TIVUK DCT QUENN DCT VELAD DCT GINAR DCT SOTOV T101 BETOS BETOS1A
Aircraft A321/M-SDE3FGHIRWY/LB1

Departure

Time 2026-05-04 12:15
Airport Tunis Carthage International Airport (DTTA)

Arrival

Time 2026-05-04 14:00
Airport Munich Airport (EDDM)
Time Latitude Longitude Altitude Speed Heading
2026-05-04 11:35 36.84594 10.21982 26 ft 0 kts 296°
2026-05-04 12:04 36.84589 10.21994 23 ft 3 kts 295°
2026-05-04 12:05 36.84581 10.22017 26 ft 3 kts 295°
2026-05-04 12:05 36.84572 10.22039 25 ft 3 kts 291°
2026-05-04 12:05 36.84567 10.22062 24 ft 3 kts 268°
2026-05-04 12:05 36.84571 10.22084 23 ft 3 kts 226°
2026-05-04 12:06 36.84582 10.22094 26 ft 1 kts 193°
2026-05-04 12:06 36.84596 10.22098 25 ft 3 kts 192°
2026-05-04 12:06 36.84616 10.22104 24 ft 3 kts 192°
2026-05-04 12:06 36.84633 10.22109 25 ft 1 kts 192°
2026-05-04 12:07 36.84635 10.22109 25 ft 0 kts 192°
2026-05-04 12:10 36.84609 10.22102 22 ft 8 kts 192°
2026-05-04 12:10 36.84542 10.22090 22 ft 10 kts 171°
2026-05-04 12:10 36.84501 10.22160 21 ft 11 kts 104°
2026-05-04 12:11 36.84511 10.22252 21 ft 11 kts 40°
2026-05-04 12:11 36.84589 10.22281 21 ft 12 kts 13°
2026-05-04 12:11 36.84679 10.22305 22 ft 14 kts 12°
2026-05-04 12:11 36.84779 10.22333 23 ft 15 kts 12°
2026-05-04 12:12 36.84885 10.22361 24 ft 16 kts 12°
2026-05-04 12:12 36.84991 10.22376 25 ft 15 kts 332°
2026-05-04 12:12 36.85039 10.22266 27 ft 15 kts 293°
2026-05-04 12:12 36.85080 10.22145 28 ft 15 kts 292°
2026-05-04 12:13 36.85121 10.22021 27 ft 16 kts 292°
2026-05-04 12:14 36.85399 10.21856 29 ft 3 kts 113°
2026-05-04 12:15 36.85342 10.22025 27 ft 54 kts 112°
2026-05-04 12:15 36.85108 10.22730 28 ft 120 kts 112°
2026-05-04 12:15 36.84722 10.23887 149 ft 157 kts 113°
2026-05-04 12:15 36.84300 10.25099 885 ft 151 kts 116°
2026-05-04 12:16 36.83872 10.26325 1511 ft 159 kts 116°
2026-05-04 12:16 36.83453 10.27632 2054 ft 164 kts 113°
2026-05-04 12:16 36.83057 10.28982 2557 ft 167 kts 116°
2026-05-04 12:16 36.82324 10.30031 3018 ft 163 kts 162°
2026-05-04 12:17 36.81186 10.30072 3323 ft 175 kts 202°
2026-05-04 12:17 36.80175 10.29139 3580 ft 192 kts 234°
2026-05-04 12:17 36.79816 10.27525 3970 ft 205 kts 277°
2026-05-04 12:17 36.80516 10.25948 4358 ft 219 kts 316°
2026-05-04 12:18 36.81800 10.24850 4736 ft 228 kts 329°
2026-05-04 12:18 36.83227 10.23957 5083 ft 230 kts 334°
2026-05-04 12:18 36.84686 10.23114 5501 ft 232 kts 334°
2026-05-04 12:18 36.86272 10.22619 5931 ft 243 kts 347°
2026-05-04 12:19 36.87983 10.22201 6364 ft 258 kts 345°
2026-05-04 12:19 36.89774 10.21687 6846 ft 270 kts 345°
2026-05-04 12:19 36.91634 10.21117 7330 ft 278 kts 343°
2026-05-04 12:19 36.93516 10.20527 7827 ft 280 kts 343°
2026-05-04 12:20 36.95417 10.19929 8310 ft 283 kts 344°
2026-05-04 12:20 36.97338 10.19328 8814 ft 286 kts 343°
2026-05-04 12:20 36.99274 10.18726 9324 ft 287 kts 343°
2026-05-04 12:20 37.01219 10.18122 9841 ft 289 kts 344°
2026-05-04 12:21 37.03181 10.17512 10322 ft 293 kts 344°
2026-05-04 12:21 37.05190 10.16885 10800 ft 303 kts 343°
2026-05-04 12:21 37.07264 10.16234 11293 ft 312 kts 343°
2026-05-04 12:21 37.09395 10.15566 11780 ft 320 kts 343°
2026-05-04 12:22 37.11584 10.14880 12285 ft 328 kts 343°
2026-05-04 12:22 37.13822 10.14181 12792 ft 335 kts 343°
2026-05-04 12:22 37.16108 10.13466 13305 ft 342 kts 343°
2026-05-04 12:22 37.18441 10.12735 13831 ft 348 kts 343°
2026-05-04 12:23 37.20810 10.11992 14296 ft 354 kts 343°
2026-05-04 12:23 37.23218 10.11242 14779 ft 359 kts 343°
2026-05-04 12:23 37.25663 10.10480 15260 ft 364 kts 343°
2026-05-04 12:23 37.28138 10.09704 15753 ft 369 kts 343°
2026-05-04 12:24 37.30643 10.08917 16264 ft 373 kts 343°
2026-05-04 12:24 37.33178 10.08118 16771 ft 377 kts 343°
2026-05-04 12:24 37.35734 10.07314 17286 ft 381 kts 343°
2026-05-04 12:24 37.38316 10.06504 17811 ft 384 kts 343°
2026-05-04 12:25 37.40917 10.05689 18337 ft 387 kts 343°
2026-05-04 12:25 37.43536 10.04864 18804 ft 389 kts 343°
2026-05-04 12:25 37.46174 10.04030 19273 ft 391 kts 343°
2026-05-04 12:25 37.48784 10.03207 19745 ft 393 kts 343°
2026-05-04 12:26 37.51438 10.02367 20224 ft 394 kts 342°
2026-05-04 12:26 37.54102 10.01523 20719 ft 396 kts 342°
2026-05-04 12:26 37.56777 10.00675 21217 ft 397 kts 342°
2026-05-04 12:26 37.59455 9.99826 21723 ft 397 kts 342°
2026-05-04 12:27 37.62139 9.98976 22233 ft 397 kts 342°
2026-05-04 12:27 37.64821 9.98127 22764 ft 397 kts 342°
2026-05-04 12:27 37.67499 9.97279 23285 ft 396 kts 342°
2026-05-04 12:27 37.70170 9.96432 23797 ft 395 kts 342°
2026-05-04 12:28 37.72835 9.95586 24256 ft 394 kts 342°
2026-05-04 12:28 37.75490 9.94741 24716 ft 393 kts 341°
2026-05-04 12:28 37.78133 9.93900 25196 ft 391 kts 341°
2026-05-04 12:28 37.80761 9.93062 25672 ft 389 kts 341°
2026-05-04 12:29 37.83378 9.92229 26162 ft 386 kts 341°
2026-05-04 12:29 37.85975 9.91401 26648 ft 384 kts 341°
2026-05-04 12:29 37.88550 9.90578 27148 ft 381 kts 340°
2026-05-04 12:29 37.91111 9.89762 27659 ft 377 kts 340°
2026-05-04 12:30 37.93643 9.88954 28177 ft 374 kts 340°
2026-05-04 12:30 37.96152 9.88151 28705 ft 370 kts 340°
2026-05-04 12:30 37.98628 9.87356 29245 ft 365 kts 340°
2026-05-04 12:30 38.01089 9.86565 29662 ft 364 kts 340°
2026-05-04 12:31 38.03537 9.85777 30080 ft 362 kts 340°
2026-05-04 12:31 38.05976 9.84994 30450 ft 360 kts 340°
2026-05-04 12:31 38.08397 9.84219 30810 ft 357 kts 339°
2026-05-04 12:31 38.10797 9.83452 31174 ft 354 kts 339°
2026-05-04 12:32 38.13186 9.82687 31425 ft 355 kts 339°
2026-05-04 12:32 38.17988 9.81139 31832 ft 357 kts 339°
2026-05-04 12:32 38.20401 9.80357 32035 ft 359 kts 339°
2026-05-04 12:33 38.22845 9.79647 32234 ft 363 kts 344°
2026-05-04 12:33 38.25379 9.79319 32462 ft 370 kts 351°
2026-05-04 12:33 38.27965 9.79426 32733 ft 375 kts 359°
2026-05-04 12:33 38.30564 9.79956 32941 ft 380 kts
2026-05-04 12:34 38.33168 9.80599 33130 ft 381 kts
2026-05-04 12:34 38.35776 9.81238 33323 ft 383 kts
2026-05-04 12:34 38.38392 9.81878 33512 ft 384 kts
2026-05-04 12:34 38.41018 9.82519 33696 ft 385 kts
2026-05-04 12:35 38.43650 9.83161 33873 ft 386 kts
2026-05-04 12:35 38.46292 9.83805 34031 ft 387 kts
2026-05-04 12:35 38.48955 9.84451 34098 ft 392 kts
2026-05-04 12:36 38.54376 9.85763 34077 ft 406 kts
2026-05-04 12:36 38.60014 9.87138 34077 ft 419 kts
2026-05-04 12:37 38.65838 9.88569 34080 ft 433 kts
2026-05-04 12:37 38.71841 9.90048 34093 ft 445 kts
2026-05-04 12:38 38.77977 9.91571 34082 ft 451 kts
2026-05-04 12:38 38.84156 9.93104 34083 ft 452 kts
2026-05-04 12:39 38.90333 9.94641 34087 ft 452 kts
2026-05-04 12:39 38.96521 9.96175 34085 ft 452 kts
2026-05-04 12:40 39.02703 9.97714 34092 ft 453 kts
2026-05-04 12:40 39.07850 9.98987 34100 ft 453 kts
2026-05-04 12:41 39.14049 10.00525 34104 ft 454 kts
2026-05-04 12:41 39.20254 10.02068 34110 ft 455 kts
2026-05-04 12:42 39.26474 10.03634 34113 ft 455 kts
2026-05-04 12:42 39.32696 10.05194 34116 ft 456 kts
2026-05-04 12:43 39.38928 10.06752 34111 ft 457 kts
2026-05-04 12:43 39.45197 10.08322 34076 ft 461 kts
2026-05-04 12:44 39.51512 10.09908 34079 ft 463 kts
2026-05-04 12:44 39.57851 10.11513 34088 ft 465 kts
2026-05-04 12:45 39.64223 10.13131 34090 ft 468 kts
2026-05-04 12:45 39.70630 10.14749 34092 ft 470 kts
2026-05-04 12:46 39.77060 10.16377 34091 ft 471 kts
2026-05-04 12:46 39.83462 10.18008 34121 ft 472 kts
2026-05-04 12:47 39.89963 10.19665 34124 ft 473 kts
2026-05-04 12:47 39.96383 10.21309 34134 ft 473 kts
2026-05-04 12:48 40.02833 10.22954 34150 ft 472 kts
2026-05-04 12:48 40.09271 10.24599 34139 ft 471 kts
2026-05-04 12:49 40.15708 10.26242 34134 ft 471 kts
2026-05-04 12:49 40.22139 10.27893 34136 ft 471 kts
2026-05-04 12:50 40.28571 10.29563 34132 ft 471 kts
2026-05-04 12:50 40.35006 10.31225 34131 ft 471 kts
2026-05-04 12:51 40.41442 10.32878 34134 ft 471 kts
2026-05-04 12:51 40.47878 10.34547 34146 ft 471 kts
2026-05-04 12:52 40.54266 10.36209 34141 ft 471 kts
2026-05-04 12:52 40.60692 10.37874 34138 ft 471 kts
2026-05-04 12:53 40.67115 10.39534 34150 ft 470 kts
2026-05-04 12:53 40.73534 10.41217 34144 ft 470 kts
2026-05-04 12:54 40.79935 10.42913 34142 ft 469 kts
2026-05-04 12:54 40.86329 10.44590 34140 ft 468 kts
2026-05-04 12:55 40.92722 10.46259 34146 ft 468 kts
2026-05-04 12:55 40.99103 10.47935 34141 ft 467 kts
2026-05-04 12:56 41.05482 10.49619 34140 ft 467 kts
2026-05-04 12:56 41.11855 10.51305 34147 ft 467 kts
2026-05-04 12:57 41.18223 10.52998 34136 ft 466 kts
2026-05-04 12:57 41.24585 10.54686 34137 ft 466 kts
2026-05-04 12:58 41.30942 10.56375 34150 ft 466 kts
2026-05-04 12:58 41.37297 10.58068 34153 ft 465 kts
2026-05-04 12:59 41.43630 10.59758 34143 ft 463 kts
2026-05-04 12:59 41.49944 10.61443 34161 ft 462 kts
2026-05-04 13:00 41.56254 10.63124 34151 ft 462 kts
2026-05-04 13:00 41.62523 10.64806 34147 ft 462 kts
2026-05-04 13:01 41.68830 10.66512 34146 ft 462 kts
2026-05-04 13:01 41.75143 10.68226 34153 ft 463 kts
2026-05-04 13:02 41.81465 10.69936 34142 ft 464 kts
2026-05-04 13:02 41.87797 10.71643 34139 ft 464 kts
2026-05-04 13:03 41.94137 10.73356 34156 ft 465 kts
2026-05-04 13:03 42.00481 10.75079 34152 ft 465 kts
2026-05-04 13:04 42.06830 10.76415 34151 ft 456 kts 354°
2026-05-04 13:04 42.13162 10.76614 34161 ft 455 kts 354°
2026-05-04 13:05 42.19502 10.76822 34150 ft 456 kts 354°
2026-05-04 13:05 42.25856 10.77038 34148 ft 457 kts 354°
2026-05-04 13:06 42.32214 10.77245 34151 ft 457 kts 354°
2026-05-04 13:06 42.38575 10.77447 34160 ft 457 kts 354°
2026-05-04 13:07 42.44897 10.77658 34162 ft 458 kts 354°
2026-05-04 13:07 42.51263 10.77873 34169 ft 458 kts 354°
2026-05-04 13:08 42.57636 10.78084 34162 ft 458 kts 355°
2026-05-04 13:08 42.64019 10.78285 34165 ft 459 kts 355°
2026-05-04 13:09 42.70409 10.78494 34166 ft 460 kts 355°
2026-05-04 13:09 42.76807 10.78702 34177 ft 461 kts 355°
2026-05-04 13:10 42.83226 10.78912 34169 ft 462 kts 355°
2026-05-04 13:10 42.89650 10.79129 34156 ft 462 kts 355°
2026-05-04 13:11 42.96087 10.79347 34164 ft 463 kts 356°
2026-05-04 13:11 43.02525 10.79568 34156 ft 463 kts 356°
2026-05-04 13:12 43.08967 10.79782 34153 ft 463 kts 356°
2026-05-04 13:12 43.15418 10.79995 34162 ft 464 kts 356°
2026-05-04 13:13 43.21870 10.80213 34159 ft 464 kts 356°
2026-05-04 13:13 43.28327 10.80429 34154 ft 464 kts 356°
2026-05-04 13:14 43.34783 10.80639 34165 ft 464 kts 356°
2026-05-04 13:14 43.41196 10.80854 34156 ft 464 kts 357°
2026-05-04 13:15 43.47655 10.81082 34152 ft 464 kts 357°
2026-05-04 13:15 43.54111 10.81314 34159 ft 464 kts 357°
2026-05-04 13:16 43.60567 10.81537 34156 ft 464 kts 357°
2026-05-04 13:16 43.67026 10.81865 34156 ft 466 kts 359°
2026-05-04 13:17 43.73492 10.82616 34160 ft 467 kts
2026-05-04 13:17 43.79961 10.83482 34156 ft 467 kts
2026-05-04 13:18 43.86431 10.84262 34154 ft 467 kts
2026-05-04 13:18 43.92903 10.84976 34170 ft 466 kts
2026-05-04 13:19 43.99378 10.85690 34181 ft 467 kts
2026-05-04 13:19 44.05852 10.86430 34197 ft 467 kts
2026-05-04 13:20 44.12330 10.87178 34205 ft 467 kts
2026-05-04 13:20 44.18812 10.87919 34200 ft 467 kts
2026-05-04 13:21 44.25293 10.88661 34189 ft 467 kts
2026-05-04 13:21 44.31778 10.89403 34187 ft 467 kts
2026-05-04 13:22 44.38259 10.90144 34172 ft 467 kts
2026-05-04 13:22 44.44742 10.90885 34175 ft 468 kts
2026-05-04 13:23 44.51228 10.91640 34173 ft 468 kts
2026-05-04 13:23 44.57723 10.92400 34165 ft 468 kts
2026-05-04 13:24 44.64215 10.93157 34156 ft 468 kts
2026-05-04 13:24 44.70712 10.93917 34150 ft 469 kts
2026-05-04 13:25 44.80419 10.95048 34138 ft 469 kts
2026-05-04 13:25 44.86923 10.95809 34138 ft 469 kts
2026-05-04 13:26 44.93433 10.96577 34124 ft 470 kts
2026-05-04 13:26 44.99949 10.97341 34123 ft 470 kts
2026-05-04 13:27 45.06470 10.98106 34103 ft 470 kts
2026-05-04 13:27 45.13000 10.98883 34094 ft 471 kts
2026-05-04 13:28 45.19534 10.99656 34094 ft 472 kts
2026-05-04 13:28 45.26082 11.00430 34099 ft 472 kts
2026-05-04 13:29 45.32643 11.01211 34077 ft 474 kts
2026-05-04 13:29 45.39223 11.01990 34080 ft 475 kts
2026-05-04 13:30 45.44698 11.02651 34091 ft 476 kts
2026-05-04 13:30 45.51299 11.03448 34089 ft 477 kts
2026-05-04 13:31 45.57915 11.04242 34097 ft 477 kts
2026-05-04 13:31 45.64537 11.05043 34114 ft 478 kts
2026-05-04 13:32 45.71156 11.05835 34105 ft 477 kts
2026-05-04 13:32 45.77773 11.06632 34114 ft 477 kts
2026-05-04 13:33 45.84384 11.07431 34138 ft 477 kts
2026-05-04 13:33 45.91003 11.08230 34129 ft 478 kts
2026-05-04 13:34 45.97626 11.09038 34125 ft 478 kts
2026-05-04 13:34 46.04256 11.09837 34164 ft 478 kts
2026-05-04 13:35 46.14211 11.11045 34197 ft 479 kts
2026-05-04 13:36 46.20849 11.11876 34237 ft 479 kts
2026-05-04 13:36 46.27487 11.12715 34237 ft 479 kts
2026-05-04 13:37 46.34124 11.13537 34245 ft 479 kts
2026-05-04 13:37 46.40760 11.14343 34110 ft 479 kts
2026-05-04 13:38 46.47395 11.15160 34059 ft 478 kts
2026-05-04 13:38 46.54030 11.15990 34047 ft 478 kts
2026-05-04 13:39 46.60662 11.16825 34052 ft 478 kts
2026-05-04 13:39 46.67294 11.17657 34054 ft 479 kts
2026-05-04 13:40 46.73936 11.18482 34055 ft 479 kts
2026-05-04 13:40 46.80541 11.19306 34052 ft 480 kts
2026-05-04 13:41 46.87188 11.20149 34053 ft 480 kts
2026-05-04 13:41 46.93846 11.20998 34037 ft 480 kts
2026-05-04 13:42 47.03852 11.21842 33497 ft 479 kts
2026-05-04 13:42 47.07182 11.22008 32917 ft 479 kts
2026-05-04 13:42 47.10516 11.22169 32355 ft 479 kts
2026-05-04 13:43 47.13858 11.22347 31816 ft 480 kts
2026-05-04 13:43 47.17203 11.22548 31266 ft 482 kts
2026-05-04 13:43 47.20555 11.22771 30746 ft 483 kts
2026-05-04 13:43 47.23911 11.23008 30233 ft 483 kts
2026-05-04 13:44 47.27278 11.23248 29674 ft 485 kts
2026-05-04 13:44 47.30629 11.23485 29082 ft 479 kts
2026-05-04 13:44 47.33951 11.23720 28497 ft 476 kts
2026-05-04 13:44 47.37258 11.23959 27933 ft 477 kts
2026-05-04 13:45 47.40571 11.24353 27377 ft 478 kts
2026-05-04 13:45 47.43882 11.24918 26830 ft 480 kts
2026-05-04 13:45 47.47196 11.25593 26310 ft 480 kts
2026-05-04 13:45 47.50487 11.26304 25784 ft 474 kts
2026-05-04 13:46 47.53719 11.26990 25261 ft 465 kts
2026-05-04 13:46 47.56887 11.27628 24758 ft 453 kts
2026-05-04 13:46 47.59982 11.28215 24272 ft 446 kts
2026-05-04 13:46 47.63047 11.28771 23782 ft 441 kts
2026-05-04 13:47 47.66043 11.29303 23259 ft 438 kts
2026-05-04 13:47 47.69103 11.29843 22696 ft 436 kts
2026-05-04 13:47 47.72061 11.30375 22133 ft 432 kts
2026-05-04 13:47 47.75000 11.30914 21592 ft 418 kts
2026-05-04 13:48 47.77877 11.31448 21048 ft 404 kts
2026-05-04 13:48 47.80589 11.31956 20528 ft 392 kts
2026-05-04 13:48 47.83252 11.32455 20016 ft 380 kts
2026-05-04 13:48 47.85844 11.32938 19511 ft 370 kts
2026-05-04 13:49 47.88370 11.33405 19015 ft 359 kts
2026-05-04 13:49 47.90815 11.33766 18523 ft 347 kts
2026-05-04 13:49 47.93189 11.33994 18001 ft 339 kts
2026-05-04 13:49 47.95535 11.34203 17445 ft 336 kts
2026-05-04 13:50 47.97849 11.34596 16901 ft 332 kts 359°
2026-05-04 13:50 48.00112 11.34201 16365 ft 325 kts 346°
2026-05-04 13:50 48.02305 11.33486 15829 ft 320 kts 345°
2026-05-04 13:50 48.04461 11.32746 15314 ft 316 kts 344°
2026-05-04 13:51 48.06596 11.32009 14797 ft 313 kts 344°
2026-05-04 13:51 48.08704 11.31276 14294 ft 309 kts 344°
2026-05-04 13:51 48.10792 11.30564 13800 ft 307 kts 348°
2026-05-04 13:51 48.12907 11.30206 13244 ft 305 kts 354°
2026-05-04 13:52 48.17109 11.29776 12090 ft 302 kts 354°
2026-05-04 13:52 48.19205 11.29567 11485 ft 302 kts 354°
2026-05-04 13:52 48.21303 11.29354 10888 ft 302 kts 354°
2026-05-04 13:53 48.23384 11.29144 10300 ft 298 kts 354°
2026-05-04 13:53 48.25436 11.28937 9718 ft 293 kts 354°
2026-05-04 13:53 48.27457 11.28816 9083 ft 289 kts
2026-05-04 13:54 48.31077 11.31022 7753 ft 283 kts 43°
2026-05-04 13:54 48.32320 11.33268 7090 ft 277 kts 62°
2026-05-04 13:54 48.33245 11.38564 6404 ft 251 kts 85°
2026-05-04 13:55 48.33451 11.41088 6061 ft 236 kts 85°
2026-05-04 13:55 48.33822 11.45673 5475 ft 210 kts 84°
2026-05-04 13:55 48.33993 11.47807 5205 ft 206 kts 83°
2026-05-04 13:56 48.34164 11.49940 4944 ft 205 kts 83°
2026-05-04 13:56 48.34332 11.52050 4670 ft 201 kts 83°
2026-05-04 13:56 48.34664 11.56218 4149 ft 200 kts 82°
2026-05-04 13:57 48.34825 11.58262 3870 ft 193 kts 83°
2026-05-04 13:57 48.34982 11.60234 3614 ft 188 kts 82°
2026-05-04 13:58 48.35425 11.65864 2906 ft 167 kts 82°
2026-05-04 13:58 48.35678 11.69095 2496 ft 149 kts 82°
2026-05-04 13:58 48.35796 11.70609 2298 ft 143 kts 83°
2026-05-04 13:59 48.35913 11.72107 2119 ft 144 kts 81°
2026-05-04 13:59 48.36025 11.73587 1928 ft 141 kts 81°
2026-05-04 13:59 48.36261 11.76561 1539 ft 140 kts 82°
2026-05-04 14:00 48.36368 11.77936 1462 ft 112 kts 82°
2026-05-04 14:00 48.36429 11.79328 1462 ft 26 kts 116°
2026-05-04 14:00 48.36358 11.79595 1463 ft 28 kts 111°
2026-05-04 14:01 48.36271 11.79804 1467 ft 11 kts 161°
2026-05-04 14:01 48.36234 11.79741 1460 ft 14 kts 254°
2026-05-04 14:01 48.36202 11.79323 1468 ft 22 kts 264°
2026-05-04 14:02 48.36185 11.79087 1468 ft 23 kts 263°
2026-05-04 14:02 48.36165 11.78841 1468 ft 24 kts 263°
2026-05-04 14:02 48.36145 11.78582 1467 ft 25 kts 263°
2026-05-04 14:02 48.36124 11.78313 1467 ft 27 kts 263°
2026-05-04 14:03 48.36102 11.78031 1464 ft 28 kts 263°
2026-05-04 14:03 48.36080 11.77751 1467 ft 26 kts 263°
2026-05-04 14:03 48.36019 11.77650 1467 ft 8 kts 156°
2026-05-04 14:03 48.35952 11.77675 1463 ft 13 kts 171°
2026-05-04 14:04 48.35693 11.77721 1462 ft 24 kts 172°
2026-05-04 14:04 48.35506 11.77752 1466 ft 30 kts 174°
2026-05-04 14:04 48.35333 11.77813 1466 ft 23 kts 128°
2026-05-04 14:05 48.35319 11.78160 1464 ft 16 kts 158°
2026-05-04 14:05 48.35205 11.78183 1466 ft 17 kts 174°
2026-05-04 14:05 48.35092 11.78208 1460 ft 11 kts 154°
2026-05-04 14:06 48.35090 11.78303 1462 ft 10 kts 85°
2026-05-04 14:06 48.35094 11.78357 1466 ft 0 kts 82°